CW1490 Weather Reports


Display with metric or nautical units.
time (UTC)temp
F
wind
direction
speed
MPH
gust
MPH
rain 1hr
in
rain 24hr
in
rain mn
in
humidity
%
barometer
mb
20150425214043 53 39 7.0 13.0 0.00 0.00 0.00 44 1005.1
20150425212542 52 35 4.0 11.0 0.00 0.00 0.00 45 1005.0
20150425211042 52 59 3.0 12.0 0.00 0.00 0.00 43 1005.0
20150425205542 53 46 7.0 14.0 0.00 0.00 0.00 42 1005.0
20150425204041 53 360 4.0 14.0 0.00 0.00 0.00 40 1004.9
20150425202540 54 1 6.0 12.0 0.00 0.00 0.00 41 1004.7
20150425201040 54 341 4.0 9.0 0.00 0.00 0.00 43 1004.8
20150425195537 54 341 3.0 11.0 0.00 0.00 0.00 42 1005.1
20150425194036 53 345 4.0 12.0 0.00 0.00 0.00 42 1005.2
20150425192534 53 337 5.0 15.0 0.00 0.00 0.00 43 1005.5
20150425191032 53 355 3.0 12.0 0.00 0.00 0.00 40 1005.6
20150425185529 53 319 9.0 16.0 0.00 0.00 0.00 43 1005.9
20150425184028 53 350 7.0 15.0 0.00 0.00 0.00 42 1006.1
20150425182526 54 6 7.0 13.0 0.00 0.00 0.00 42 1006.3
20150425181024 52 355 3.0 12.0 0.00 0.00 0.00 44 1006.3
20150425175523 53 32 7.0 15.0 0.00 0.00 0.00 41 1006.5
20150425174020 52 40 6.0 16.0 0.00 0.00 0.00 43 1006.5
20150425172518 52 32 12.0 18.0 0.00 0.00 0.00 44 1006.7
20150425171116 50 82 12.0 20.0 0.00 0.00 0.00 45 1006.7
20150425165516 51 301 4.0 22.0 0.00 0.00 0.00 46 1007.0
20150425164014 51 5 4.0 11.0 0.00 0.00 0.00 48 1007.1
20150425162512 50 341 3.0 15.0 0.00 0.00 0.00 46 1007.1
20150425161009 50 287 5.0 17.0 0.00 0.00 0.00 46 1007.2
20150425155506 50 37 8.0 20.0 0.00 0.00 0.00 43 1007.1
20150425154004 48 271 2.0 13.0 0.00 0.00 0.00 49 1007.3
20150425152502 48 319 4.0 14.0 0.00 0.00 0.00 48 1007.5
20150425151000 50 318 5.0 18.0 0.00 0.00 0.00 49 1007.4
20150425145457 48 18 6.0 15.0 0.00 0.00 0.00 47 1007.6
20150425143953 47 307 6.0 16.0 0.00 0.00 0.00 50 1007.6
20150425142448 46 355 8.0 16.0 0.00 0.00 0.00 50 1007.7
20150425140944 45 1 5.0 17.0 0.00 0.00 0.00 53 1008.0
20150425135442 45 5 8.0 19.0 0.00 0.00 0.00 52 1008.1
20150425133938 45 42 9.0 15.0 0.00 0.00 0.00 51 1008.2
20150425132433 44 338 4.0 12.0 0.00 0.00 0.00 52 1008.3
20150425130930 43 355 7.0 13.0 0.00 0.00 0.00 52 1008.4
20150425125427 42 299 4.0 10.0 0.00 0.00 0.00 55 1008.5
20150425123923 41 286 2.0 12.0 0.00 0.00 0.00 56 1008.6
20150425122418 40 345 3.0 8.0 0.00 0.00 0.00 57 1008.8
20150425120914 39 278 2.0 7.0 0.00 0.00 0.00 57 1009.0
20150425115409 39 292 3.0 9.0 0.00 0.00 0.00 59 1009.0
20150425113905 37 318 2.0 4.0 0.00 0.00 0.00 64 1009.0
20150425112401 35 160 0.0 2.0 0.00 0.00 0.00 67 1009.0
20150425110859 33 160 0.0 0.0 0.00 0.00 0.00 77 1008.9
20150425105356 32 160 0.0 3.0 0.00 0.00 0.00 76 1008.9
20150425103855 30 13 1.0 3.0 0.00 0.00 0.00 78 1008.7
20150425102352 31 12 1.0 4.0 0.00 0.00 0.00 74 1008.6
20150425100850 31 334 0.0 5.0 0.00 0.00 0.00 72 1008.5
20150425095448 33 8 2.0 6.0 0.00 0.00 0.00 68 1008.4
20150425093846 32 45 5.0 12.0 0.00 0.00 0.00 70 1008.1
20150425092347 33 359 3.0 7.0 0.00 0.00 0.00 68 1008.3
20150425090845 33 24 3.0 11.0 0.00 0.00 0.00 68 1008.1
20150425085344 33 34 5.0 10.0 0.00 0.00 0.00 68 1008.2
20150425083841 33 26 2.0 8.0 0.00 0.00 0.00 68 1008.4
20150425082340 33 49 6.0 11.0 0.00 0.00 0.00 69 1008.5
20150425080838 33 24 1.0 3.0 0.00 0.00 0.00 67 1008.7
20150425075338 34 47 3.0 6.0 0.00 0.00 0.00 66 1008.6
20150425073837 35 23 3.0 11.0 0.00 0.00 0.00 65 1008.5
20150425072336 34 338 2.0 8.0 0.00 0.00 0.00 66 1008.7
20150425070836 34 345 1.0 2.0 0.00 0.00 0.00 66 1008.7
20150425065334 35 9 1.0 6.0 0.00 0.00 0.00 65 1008.8
20150425063833 34 345 4.0 10.0 0.00 0.00 0.00 68 1008.8
20150425062330 32 305 0.0 2.0 0.00 0.00 0.00 77 1008.9
20150425060828 32 305 0.0 3.0 0.00 0.00 0.00 76 1009.0
20150425055326 32 305 0.0 2.0 0.00 0.00 0.00 73 1009.0
20150425053824 33 305 1.0 2.0 0.00 0.00 0.00 71 1009.0
20150425052321 34 305 1.0 3.0 0.00 0.00 0.00 66 1009.1
20150425050817 36 305 0.0 1.0 0.00 0.00 0.00 63 1009.1
20150425045314 37 305 1.0 5.0 0.00 0.00 0.00 58 1009.2
20150425043812 37 294 0.0 4.0 0.00 0.00 0.00 60 1009.4
20150425042309 38 20 2.0 5.0 0.00 0.00 0.00 57 1009.5
20150425040808 38 311 2.0 5.0 0.00 0.00 0.00 57 1009.7
20150425035304 38 350 0.0 5.0 0.00 0.00 0.00 57 1009.6
20150425034104 38 316 2.0 6.0 0.00 0.00 0.00 58 1009.7
20150425032304 38 305 1.0 5.0 0.00 0.00 0.00 57 1009.8
20150425030804 38 307 5.0 8.0 0.00 0.00 0.00 57 1009.8
20150425025302 38 337 1.0 10.0 0.00 0.00 0.00 55 1009.9
20150425023802 39 33 2.0 14.0 0.00 0.00 0.00 55 1010.0
20150425022301 39 330 5.0 11.0 0.00 0.00 0.00 54 1010.3
20150425020800 39 35 9.0 14.0 0.00 0.00 0.00 54 1010.2
20150425015259 39 16 5.0 16.0 0.00 0.00 0.00 54 1010.3
20150425013759 39 345 7.0 15.0 0.00 0.00 0.00 55 1010.3
20150425012256 39 5 3.0 16.0 0.00 0.00 0.00 55 1010.4
20150425010855 39 30 2.0 8.0 0.00 0.00 0.00 56 1010.2
20150425005254 39 345 5.0 20.0 0.00 0.00 0.00 54 1009.9
20150425003752 40 299 5.0 11.0 0.00 0.00 0.00 55 1009.9
20150425002250 40 323 2.0 8.0 0.00 0.00 0.00 57 1009.7
20150425000748 40 323 5.0 9.0 0.00 0.00 0.00 58 1009.4
20150424235246 40 303 5.0 10.0 0.00 0.00 0.00 56 1009.3
20150424233745 40 345 3.0 10.0 0.00 0.00 0.00 53 1009.1
20150424232242 41 317 2.0 14.0 0.00 0.00 0.00 55 1009.0
20150424230740 41 298 6.0 10.0 0.00 0.00 0.00 54 1008.7
20150424225239 41 336 5.0 10.0 0.00 0.00 0.00 52 1008.6
20150424222237 42 345 2.0 8.0 0.00 0.00 0.00 52 1008.4
20150424220736 42 355 5.0 11.0 0.00 0.00 0.00 48 1008.4
20150424215235 42 338 2.0 14.0 0.00 0.00 0.00 49 1008.3